Location: Recife
(8.0585°S, 34.8848°W)
Time: 11:11:40
(UTC-03:00)

Tiros 1 - Pass Details

Date: 14 April 2026
Orbit: 618 x 648 km, 48.4° (Epoch: 14 May)

Event Time Altitude Azimuth Distance (km) Brightness Sun altitude
Rises 08:28:49 0° 256° (WSW) 2,883 10.1 43.9°
Reaches altitude 10° 08:33:04 10° 294° (WNW) 1,971 9.4 44.9°
Maximum altitude 08:34:06 11° 308° (NW) 1,924 9.5 45.1°
Drops below altitude 10° 08:35:09 10° 321° (NW) 1,968 9.6 45.4°
Sets 08:39:24 0° 359° (N) 2,869 10.7 46.4°
